Time,TemperatureF,DewpointF,PressureIn,WindDirection,WindDirectionDegrees,WindSpeedMPH,WindSpeedGustMPH,Humidity,HourlyPrecipIn,Conditions,Clouds,dailyrainin,SoftwareType,DateUTC
2013-02-25 00:00:00,30.0,29.0,29.90,North,356,0.0,2.0,96,0.00,,---,0.00,VWS V14.01,2013-02-25 05:00:00,
2013-02-25 00:05:00,30.0,29.0,29.90,North,356,0.0,3.0,96,0.00,,---,0.00,VWS V14.01,2013-02-25 05:05:00,
2013-02-25 00:10:00,30.0,29.0,29.91,NNW,346,0.0,3.0,96,0.00,,---,0.00,VWS V14.01,2013-02-25 05:10:00,
2013-02-25 00:15:00,30.0,28.7,29.91,NNE,15,1.0,4.0,95,0.00,,---,0.00,VWS V14.01,2013-02-25 05:15:00,
2013-02-25 00:20:00,29.9,28.6,29.91,NNE,15,0.0,2.0,95,0.00,,---,0.00,VWS V14.01,2013-02-25 05:20:00,
2013-02-25 00:25:00,29.9,28.6,29.91,NNE,15,0.0,2.0,95,0.00,,---,0.00,VWS V14.01,2013-02-25 05:25:00,
2013-02-25 00:30:00,29.8,28.5,29.91,NNE,15,0.0,2.0,95,0.00,,---,0.00,VWS V14.01,2013-02-25 05:30:00,
2013-02-25 00:35:00,29.8,28.5,29.91,NNE,19,0.0,2.0,95,0.00,,---,0.00,VWS V14.01,2013-02-25 05:35:00,
2013-02-25 00:40:00,29.8,28.5,29.91,North,6,0.0,4.0,95,0.00,,---,0.00,VWS V14.01,2013-02-25 05:40:00,
2013-02-25 00:45:00,29.8,28.5,29.91,North,4,0.0,1.0,95,0.00,,---,0.00,VWS V14.01,2013-02-25 05:45:00,
2013-02-25 00:50:00,29.8,28.5,29.92,North,4,2.0,3.0,95,0.00,,---,0.00,VWS V14.01,2013-02-25 05:50:00,
2013-02-25 00:55:00,29.7,28.5,29.92,WNW,297,0.0,4.0,95,0.00,,---,0.00,VWS V14.01,2013-02-25 05:55:00,
2013-02-25 01:00:00,29.7,28.5,29.92,NNE,26,0.0,3.0,95,0.00,,---,0.00,VWS V14.01,2013-02-25 06:00:00,
2013-02-25 01:05:00,29.6,28.4,29.93,NNE,26,0.0,0.0,95,0.00,,---,0.00,VWS V14.01,2013-02-25 06:05:00,
2013-02-25 01:10:00,29.6,28.4,29.93,NNE,25,0.0,0.0,95,0.00,,---,0.00,VWS V14.01,2013-02-25 06:10:00,
2013-02-25 01:15:00,29.5,28.2,29.93,NNE,25,0.0,0.0,95,0.00,,---,0.00,VWS V14.01,2013-02-25 06:15:00,
2013-02-25 01:20:00,29.4,28.1,29.93,WNW,302,1.0,3.0,95,0.00,,---,0.00,VWS V14.01,2013-02-25 06:20:00,
2013-02-25 01:25:00,29.4,28.1,29.93,North,352,0.0,2.0,95,0.00,,---,0.00,VWS V14.01,2013-02-25 06:25:00,
2013-02-25 01:30:00,29.4,28.1,29.93,NNE,26,1.0,3.0,95,0.00,,---,0.00,VWS V14.01,2013-02-25 06:30:00,
2013-02-25 01:35:00,29.4,28.1,29.93,NNE,30,0.0,2.0,95,0.00,,---,0.00,VWS V14.01,2013-02-25 06:35:00,
2013-02-25 01:40:00,29.3,28.0,29.94,NNE,30,0.0,2.0,95,0.00,,---,0.00,VWS V14.01,2013-02-25 06:40:00,
2013-02-25 01:45:00,29.3,28.0,29.94,North,2,0.0,3.0,95,0.00,,---,0.00,VWS V14.01,2013-02-25 06:45:00,
2013-02-25 01:50:00,29.2,28.0,29.94,North,9,0.0,4.0,95,0.00,,---,0.00,VWS V14.01,2013-02-25 06:50:00,
2013-02-25 01:55:00,29.1,27.9,29.94,NNE,15,0.0,6.0,95,0.00,,---,0.00,VWS V14.01,2013-02-25 06:55:00,
2013-02-25 02:00:00,29.1,27.9,29.94,North,354,0.0,3.0,95,0.00,,---,0.00,VWS V14.01,2013-02-25 07:00:00,
2013-02-25 02:05:00,29.1,27.9,29.94,North,353,0.0,3.0,95,0.00,,---,0.00,VWS V14.01,2013-02-25 07:05:00,
2013-02-25 02:10:00,29.1,27.9,29.94,North,6,0.0,4.0,95,0.00,,---,0.00,VWS V14.01,2013-02-25 07:10:00,
2013-02-25 02:15:00,29.0,27.8,29.94,North,7,1.0,3.0,95,0.00,,---,0.00,VWS V14.01,2013-02-25 07:15:00,
2013-02-25 02:20:00,29.0,27.8,29.94,NNW,344,0.0,2.0,95,0.00,,---,0.00,VWS V14.01,2013-02-25 07:20:00,
2013-02-25 02:25:00,29.0,27.8,29.94,NNE,26,0.0,4.0,95,0.00,,---,0.00,VWS V14.01,2013-02-25 07:25:00,
2013-02-25 02:30:00,29.0,27.8,29.94,NNE,26,0.0,1.0,95,0.00,,---,0.00,VWS V14.01,2013-02-25 07:30:00,
2013-02-25 02:35:00,29.0,27.8,29.95,NNE,26,0.0,1.0,95,0.00,,---,0.00,VWS V14.01,2013-02-25 07:35:00,
2013-02-25 02:40:00,29.0,27.8,29.95,NNW,327,0.0,3.0,95,0.00,,---,0.00,VWS V14.01,2013-02-25 07:40:00,
2013-02-25 02:45:00,29.0,27.8,29.95,NNE,13,0.0,3.0,95,0.00,,---,0.00,VWS V14.01,2013-02-25 07:45:00,
2013-02-25 02:50:00,29.0,27.8,29.95,NE,50,0.0,4.0,95,0.00,,---,0.00,VWS V14.01,2013-02-25 07:50:00,
2013-02-25 02:55:00,29.1,27.9,29.95,NE,50,0.0,1.0,95,0.00,,---,0.00,VWS V14.01,2013-02-25 07:55:00,
2013-02-25 03:00:00,29.1,27.9,29.95,NW,321,0.0,2.0,95,0.00,,---,0.00,VWS V14.01,2013-02-25 08:00:00,
2013-02-25 03:05:00,29.1,27.9,29.95,North,359,0.0,2.0,95,0.00,,---,0.00,VWS V14.01,2013-02-25 08:05:00,
2013-02-25 03:10:00,29.2,28.0,29.95,NNW,331,1.0,2.0,95,0.00,,---,0.00,VWS V14.01,2013-02-25 08:10:00,
2013-02-25 03:15:00,29.2,28.0,29.96,NNE,21,1.0,4.0,95,0.00,,---,0.00,VWS V14.01,2013-02-25 08:15:00,
2013-02-25 03:20:00,29.2,28.0,29.96,NNE,21,0.0,2.0,95,0.00,,---,0.00,VWS V14.01,2013-02-25 08:20:00,
2013-02-25 03:25:00,29.2,28.0,29.96,NNE,21,0.0,1.0,95,0.00,,---,0.00,VWS V14.01,2013-02-25 08:25:00,
2013-02-25 03:30:00,29.2,28.0,29.96,NNE,21,0.0,3.0,95,0.00,,---,0.00,VWS V14.01,2013-02-25 08:30:00,
2013-02-25 03:35:00,29.2,28.0,29.96,NE,56,0.0,2.0,95,0.00,,---,0.00,VWS V14.01,2013-02-25 08:35:00,
2013-02-25 03:40:00,29.2,28.0,29.96,NE,56,0.0,1.0,95,0.00,,---,0.00,VWS V14.01,2013-02-25 08:40:00,
2013-02-25 03:45:00,29.2,28.0,29.96,NE,44,0.0,3.0,95,0.00,,---,0.00,VWS V14.01,2013-02-25 08:45:00,
2013-02-25 03:50:00,29.2,28.0,29.96,NE,52,0.0,2.0,95,0.00,,---,0.00,VWS V14.01,2013-02-25 08:50:00,
2013-02-25 03:55:00,29.2,28.0,29.96,NE,52,0.0,2.0,95,0.00,,---,0.00,VWS V14.01,2013-02-25 08:55:00,
2013-02-25 04:00:00,29.2,28.0,29.97,NNE,17,0.0,3.0,95,0.00,,---,0.00,VWS V14.01,2013-02-25 09:00:00,
2013-02-25 04:05:00,29.2,28.0,29.97,North,350,0.0,2.0,95,0.00,,---,0.00,VWS V14.01,2013-02-25 09:05:00,
2013-02-25 04:10:00,29.2,28.0,29.97,North,352,0.0,1.0,95,0.00,,---,0.00,VWS V14.01,2013-02-25 09:10:00,
2013-02-25 04:15:00,29.2,28.0,29.98,North,352,1.0,1.0,95,0.00,,---,0.00,VWS V14.01,2013-02-25 09:15:00,
2013-02-25 04:20:00,29.2,28.0,29.98,NNE,30,0.0,2.0,95,0.00,,---,0.00,VWS V14.01,2013-02-25 09:20:00,
2013-02-25 04:25:00,29.2,28.0,29.98,NNE,30,0.0,1.0,95,0.00,,---,0.00,VWS V14.01,2013-02-25 09:25:00,
2013-02-25 04:30:00,29.2,28.0,29.98,NNE,30,0.0,1.0,95,0.00,,---,0.00,VWS V14.01,2013-02-25 09:30:00,
2013-02-25 04:35:00,29.3,28.0,29.99,NE,47,1.0,1.0,95,0.00,,---,0.00,VWS V14.01,2013-02-25 09:35:00,
2013-02-25 04:40:00,29.3,28.0,29.99,NE,47,0.0,1.0,95,0.00,,---,0.00,VWS V14.01,2013-02-25 09:40:00,
2013-02-25 04:45:00,29.3,27.8,29.99,NE,47,0.0,0.0,94,0.00,,---,0.00,VWS V14.01,2013-02-25 09:45:00,
2013-02-25 04:50:00,29.3,27.8,30.00,NE,47,0.0,1.0,94,0.00,,---,0.00,VWS V14.01,2013-02-25 09:50:00,
2013-02-25 04:55:00,29.3,27.8,30.00,NE,47,0.0,1.0,94,0.00,,---,0.00,VWS V14.01,2013-02-25 09:55:00,
2013-02-25 05:00:00,29.4,27.9,30.00,NE,47,0.0,1.0,94,0.00,,---,0.00,VWS V14.01,2013-02-25 10:00:00,
2013-02-25 05:05:00,29.4,27.9,30.00,NE,47,0.0,2.0,94,0.00,,---,0.00,VWS V14.01,2013-02-25 10:05:00,
2013-02-25 05:10:00,29.4,27.9,30.00,NE,47,0.0,0.0,94,0.00,,---,0.00,VWS V14.01,2013-02-25 10:10:00,
2013-02-25 05:15:00,29.4,27.9,30.00,NE,47,0.0,1.0,94,0.00,,---,0.00,VWS V14.01,2013-02-25 10:15:00,
2013-02-25 05:20:00,29.4,27.9,30.00,NE,47,0.0,0.0,94,0.00,,---,0.00,VWS V14.01,2013-02-25 10:20:00,
2013-02-25 05:25:00,29.4,27.9,30.01,NE,47,0.0,0.0,94,0.00,,---,0.00,VWS V14.01,2013-02-25 10:25:00,
2013-02-25 05:30:00,29.4,27.9,30.01,NE,47,0.0,0.0,94,0.00,,---,0.00,VWS V14.01,2013-02-25 10:30:00,
2013-02-25 05:35:00,29.4,27.9,30.01,NE,47,0.0,0.0,94,0.00,,---,0.00,VWS V14.01,2013-02-25 10:35:00,
2013-02-25 05:40:00,29.4,27.9,30.01,NE,47,0.0,1.0,94,0.00,,---,0.00,VWS V14.01,2013-02-25 10:40:00,
2013-02-25 05:45:00,29.3,27.8,30.01,NE,47,0.0,1.0,94,0.00,,---,0.00,VWS V14.01,2013-02-25 10:45:00,
2013-02-25 05:50:00,29.3,27.8,30.01,NE,47,0.0,0.0,94,0.00,,---,0.00,VWS V14.01,2013-02-25 10:50:00,
2013-02-25 05:55:00,29.3,27.8,30.01,NE,47,0.0,0.0,94,0.00,,---,0.00,VWS V14.01,2013-02-25 10:55:00,
2013-02-25 06:00:00,29.3,27.8,30.01,NE,47,0.0,1.0,94,0.00,,---,0.00,VWS V14.01,2013-02-25 11:00:00,
2013-02-25 06:05:00,29.3,28.0,30.02,NE,47,0.0,1.0,95,0.00,,---,0.00,VWS V14.01,2013-02-25 11:05:00,
2013-02-25 06:10:00,29.3,28.0,30.02,NE,47,0.0,1.0,95,0.00,,---,0.00,VWS V14.01,2013-02-25 11:10:00,
2013-02-25 06:15:00,29.3,27.8,30.02,NE,47,0.0,0.0,94,0.00,,---,0.00,VWS V14.01,2013-02-25 11:15:00,
2013-02-25 06:20:00,29.3,27.8,30.03,NE,47,0.0,0.0,94,0.00,,---,0.00,VWS V14.01,2013-02-25 11:20:00,
2013-02-25 06:25:00,29.3,27.8,30.03,NE,47,0.0,0.0,94,0.00,,---,0.00,VWS V14.01,2013-02-25 11:25:00,
2013-02-25 06:30:00,29.3,27.8,30.03,NE,47,0.0,0.0,94,0.00,,---,0.00,VWS V14.01,2013-02-25 11:30:00,
2013-02-25 06:35:00,29.3,28.0,30.03,NE,47,0.0,0.0,95,0.00,,---,0.00,VWS V14.01,2013-02-25 11:35:00,
2013-02-25 06:40:00,29.3,28.0,30.03,NE,47,0.0,1.0,95,0.00,,---,0.00,VWS V14.01,2013-02-25 11:40:00,
2013-02-25 06:45:00,29.3,28.0,30.03,NE,47,0.0,0.0,95,0.00,,---,0.00,VWS V14.01,2013-02-25 11:45:00,
2013-02-25 06:50:00,29.4,28.1,30.03,NE,47,0.0,0.0,95,0.00,,---,0.00,VWS V14.01,2013-02-25 11:50:00,
2013-02-25 06:55:00,29.4,28.1,30.04,NE,47,0.0,0.0,95,0.00,,---,0.00,VWS V14.01,2013-02-25 11:55:00,
2013-02-25 07:00:00,29.5,28.2,30.04,NE,47,0.0,1.0,95,0.00,,---,0.00,VWS V14.01,2013-02-25 12:00:00,
2013-02-25 07:05:00,29.5,28.0,30.04,NE,47,0.0,0.0,94,0.00,,---,0.00,VWS V14.01,2013-02-25 12:05:00,
2013-02-25 07:10:00,29.6,28.1,30.04,NE,47,0.0,1.0,94,0.00,,---,0.00,VWS V14.01,2013-02-25 12:10:00,
2013-02-25 07:15:00,29.7,28.5,30.04,NE,47,0.0,0.0,95,0.00,,---,0.00,VWS V14.01,2013-02-25 12:15:00,
2013-02-25 07:20:00,29.9,28.6,30.04,North,352,0.0,2.0,95,0.00,,---,0.00,VWS V14.01,2013-02-25 12:20:00,
2013-02-25 07:25:00,30.1,28.6,30.04,NE,35,0.0,3.0,94,0.00,,---,0.00,VWS V14.01,2013-02-25 12:25:00,
2013-02-25 07:30:00,30.2,28.7,30.04,NE,35,0.0,2.0,94,0.00,,---,0.00,VWS V14.01,2013-02-25 12:30:00,
2013-02-25 07:35:00,30.3,28.8,30.05,NE,35,0.0,1.0,94,0.00,,---,0.00,VWS V14.01,2013-02-25 12:35:00,
2013-02-25 07:40:00,30.4,28.6,30.05,NE,35,0.0,0.0,93,0.00,,---,0.00,VWS V14.01,2013-02-25 12:40:00,
2013-02-25 07:45:00,30.5,28.7,30.05,NE,35,0.0,0.0,93,0.00,,---,0.00,VWS V14.01,2013-02-25 12:45:00,
2013-02-25 07:50:00,30.4,28.6,30.05,NE,35,0.0,0.0,93,0.00,,---,0.00,VWS V14.01,2013-02-25 12:50:00,
2013-02-25 07:55:00,30.4,28.6,30.05,NE,35,0.0,0.0,93,0.00,,---,0.00,VWS V14.01,2013-02-25 12:55:00,
2013-02-25 08:00:00,30.5,28.7,30.06,NE,35,0.0,2.0,93,0.00,,---,0.00,VWS V14.01,2013-02-25 13:00:00,
2013-02-25 08:05:00,30.7,28.9,30.06,North,10,0.0,1.0,93,0.00,,---,0.00,VWS V14.01,2013-02-25 13:05:00,
2013-02-25 08:10:00,30.8,29.0,30.06,NNE,17,0.0,1.0,93,0.00,,---,0.00,VWS V14.01,2013-02-25 13:10:00,
2013-02-25 08:15:00,31.0,29.2,30.07,NNW,344,0.0,3.0,93,0.00,,---,0.00,VWS V14.01,2013-02-25 13:15:00,
2013-02-25 08:20:00,31.3,29.5,30.07,North,352,0.0,1.0,93,0.00,,---,0.00,VWS V14.01,2013-02-25 13:20:00,
2013-02-25 08:25:00,31.7,29.9,30.07,North,352,0.0,2.0,93,0.00,,---,0.00,VWS V14.01,2013-02-25 13:25:00,
2013-02-25 08:30:00,32.0,29.9,30.07,North,352,0.0,3.0,92,0.00,,---,0.00,VWS V14.01,2013-02-25 13:30:00,
2013-02-25 08:35:00,32.2,29.6,30.07,NNW,344,0.0,4.0,90,0.00,,---,0.00,VWS V14.01,2013-02-25 13:35:00,
2013-02-25 08:40:00,32.5,29.6,30.07,NNW,344,0.0,2.0,89,0.00,,---,0.00,VWS V14.01,2013-02-25 13:40:00,
2013-02-25 08:45:00,32.7,29.5,30.08,North,354,0.0,2.0,88,0.00,,---,0.00,VWS V14.01,2013-02-25 13:45:00,
2013-02-25 08:50:00,32.9,29.2,30.08,North,9,0.0,3.0,86,0.00,,---,0.00,VWS V14.01,2013-02-25 13:50:00,
2013-02-25 08:55:00,33.2,31.1,30.07,North,9,0.0,2.0,92,0.00,,---,0.00,VWS V14.01,2013-02-25 13:55:00,
2013-02-25 09:00:00,33.4,28.8,30.08,NNE,20,0.0,4.0,83,0.00,,---,0.00,VWS V14.01,2013-02-25 14:00:00,
2013-02-25 09:05:00,33.6,29.0,30.08,ESE,104,1.0,4.0,83,0.01,,---,0.01,VWS V14.01,2013-02-25 14:05:00,
2013-02-25 09:10:00,33.9,28.4,30.08,North,350,1.0,4.0,80,0.02,,---,0.02,VWS V14.01,2013-02-25 14:10:00,
2013-02-25 09:15:00,34.3,29.1,30.08,North,11,0.0,4.0,81,0.03,,---,0.03,VWS V14.01,2013-02-25 14:15:00,
2013-02-25 09:20:00,34.5,28.7,30.08,SSE,156,1.0,4.0,79,0.04,,---,0.04,VWS V14.01,2013-02-25 14:20:00,
2013-02-25 09:25:00,34.7,28.5,30.09,ESE,116,0.0,2.0,78,0.04,,---,0.04,VWS V14.01,2013-02-25 14:25:00,
2013-02-25 09:30:00,35.2,29.0,30.09,ENE,62,3.0,4.0,78,0.05,,---,0.05,VWS V14.01,2013-02-25 14:30:00,
2013-02-25 09:35:00,35.4,28.6,30.09,East,86,0.0,3.0,76,0.06,,---,0.06,VWS V14.01,2013-02-25 14:35:00,
2013-02-25 09:40:00,35.5,29.0,30.09,NE,35,2.0,4.0,77,0.07,,---,0.07,VWS V14.01,2013-02-25 14:40:00,
2013-02-25 09:45:00,35.5,28.4,30.09,WSW,249,0.0,2.0,75,0.07,,---,0.07,VWS V14.01,2013-02-25 14:45:00,
2013-02-25 09:50:00,35.5,28.4,30.10,NNE,14,2.0,2.0,75,0.08,,---,0.08,VWS V14.01,2013-02-25 14:50:00,
2013-02-25 09:55:00,35.5,28.4,30.10,NNE,30,0.0,4.0,75,0.08,,---,0.08,VWS V14.01,2013-02-25 14:55:00,
2013-02-25 10:00:00,35.6,28.5,30.10,ENE,59,0.0,3.0,75,0.09,,---,0.09,VWS V14.01,2013-02-25 15:00:00,
2013-02-25 10:05:00,36.0,28.9,30.10,NNE,17,0.0,2.0,75,0.09,,---,0.09,VWS V14.01,2013-02-25 15:05:00,
2013-02-25 10:10:00,36.1,28.6,30.10,NNE,17,0.0,3.0,74,0.09,,---,0.10,VWS V14.01,2013-02-25 15:10:00,
2013-02-25 10:15:00,36.1,28.3,30.10,NNE,25,1.0,5.0,73,0.08,,---,0.10,VWS V14.01,2013-02-25 15:15:00,
2013-02-25 10:20:00,36.2,29.4,30.10,NNE,30,0.0,2.0,76,0.08,,---,0.11,VWS V14.01,2013-02-25 15:20:00,
2013-02-25 10:25:00,36.4,28.6,30.10,NE,35,1.0,4.0,73,0.08,,---,0.12,VWS V14.01,2013-02-25 15:25:00,
2013-02-25 10:30:00,36.6,28.4,30.10,North,8,4.0,6.0,72,0.08,,---,0.12,VWS V14.01,2013-02-25 15:30:00,
2013-02-25 10:35:00,36.3,28.1,30.11,NNW,340,0.0,5.0,72,0.07,,---,0.12,VWS V14.01,2013-02-25 15:35:00,
2013-02-25 10:40:00,36.5,27.7,30.11,ESE,110,1.0,3.0,70,0.07,,---,0.13,VWS V14.01,2013-02-25 15:40:00,
2013-02-25 10:45:00,36.6,28.4,30.11,NNE,22,0.0,6.0,72,0.06,,---,0.13,VWS V14.01,2013-02-25 15:45:00,
2013-02-25 10:50:00,36.9,28.7,30.11,North,10,0.0,3.0,72,0.07,,---,0.14,VWS V14.01,2013-02-25 15:50:00,
2013-02-25 10:55:00,37.3,29.1,30.11,ESE,119,1.0,2.0,72,0.06,,---,0.14,VWS V14.01,2013-02-25 15:55:00,
2013-02-25 11:00:00,37.5,29.3,30.11,SSE,157,0.0,4.0,72,0.06,,---,0.14,VWS V14.01,2013-02-25 16:00:00,
2013-02-25 11:05:00,37.5,28.3,30.11,SE,134,0.0,2.0,69,0.05,,---,0.14,VWS V14.01,2013-02-25 16:05:00,
2013-02-25 11:10:00,37.4,27.8,30.11,ESE,119,1.0,2.0,68,0.06,,---,0.15,VWS V14.01,2013-02-25 16:10:00,
2013-02-25 11:15:00,37.5,28.6,30.11,NE,46,1.0,2.0,70,0.05,,---,0.15,VWS V14.01,2013-02-25 16:15:00,
2013-02-25 11:20:00,37.6,29.7,30.11,NNE,14,0.0,3.0,73,0.06,,---,0.16,VWS V14.01,2013-02-25 16:20:00,
2013-02-25 11:25:00,37.6,28.7,30.11,East,80,2.0,4.0,70,0.05,,---,0.16,VWS V14.01,2013-02-25 16:25:00,
2013-02-25 11:30:00,37.5,29.0,30.11,North,4,0.0,5.0,71,0.04,,---,0.16,VWS V14.01,2013-02-25 16:30:00,
2013-02-25 11:35:00,37.1,27.9,30.11,NNW,330,1.0,4.0,69,0.04,,---,0.16,VWS V14.01,2013-02-25 16:35:00,
2013-02-25 11:40:00,37.1,28.6,30.11,NW,308,2.0,3.0,71,0.04,,---,0.16,VWS V14.01,2013-02-25 16:40:00,
2013-02-25 11:45:00,37.3,28.4,30.11,North,353,0.0,3.0,70,0.03,,---,0.16,VWS V14.01,2013-02-25 16:45:00,
2013-02-25 11:50:00,37.3,28.8,30.11,ENE,61,0.0,4.0,71,0.04,,---,0.17,VWS V14.01,2013-02-25 16:50:00,
2013-02-25 11:55:00,37.5,28.3,30.11,ENE,58,0.0,5.0,69,0.03,,---,0.17,VWS V14.01,2013-02-25 16:55:00,
2013-02-25 12:00:00,37.9,29.0,30.11,ENE,58,0.0,2.0,70,0.03,,---,0.17,VWS V14.01,2013-02-25 17:00:00,
2013-02-25 12:05:00,38.1,29.5,30.11,NNE,13,3.0,3.0,71,0.04,,---,0.18,VWS V14.01,2013-02-25 17:05:00,
2013-02-25 12:10:00,37.9,29.0,30.11,NNW,334,0.0,3.0,70,0.04,,---,0.18,VWS V14.01,2013-02-25 17:10:00,
2013-02-25 12:15:00,37.6,29.1,30.11,NNE,30,1.0,4.0,71,0.03,,---,0.18,VWS V14.01,2013-02-25 17:15:00,
2013-02-25 12:20:00,37.5,29.3,30.11,North,350,0.0,5.0,72,0.03,,---,0.18,VWS V14.01,2013-02-25 17:20:00,
2013-02-25 12:25:00,37.6,29.4,30.11,NNE,19,0.0,5.0,72,0.02,,---,0.18,VWS V14.01,2013-02-25 17:25:00,
2013-02-25 12:30:00,37.5,28.6,30.11,NNW,341,0.0,3.0,70,0.02,,---,0.18,VWS V14.01,2013-02-25 17:30:00,
2013-02-25 12:35:00,37.8,29.3,30.11,SE,134,0.0,2.0,71,0.02,,---,0.18,VWS V14.01,2013-02-25 17:35:00,
2013-02-25 12:40:00,38.5,29.6,30.11,NE,40,1.0,3.0,70,0.02,,---,0.18,VWS V14.01,2013-02-25 17:40:00,
2013-02-25 12:45:00,39.1,30.2,30.11,SE,125,2.0,4.0,70,0.03,,---,0.19,VWS V14.01,2013-02-25 17:45:00,
2013-02-25 12:50:00,39.2,29.9,30.11,WNW,298,2.0,3.0,69,0.03,,---,0.19,VWS V14.01,2013-02-25 17:50:00,
2013-02-25 12:55:00,38.8,30.2,30.11,WNW,302,0.0,3.0,71,0.02,,---,0.19,VWS V14.01,2013-02-25 17:55:00,
2013-02-25 13:00:00,38.7,29.4,30.11,North,3,2.0,5.0,69,0.02,,---,0.19,VWS V14.01,2013-02-25 18:00:00,
2013-02-25 13:05:00,38.2,29.3,30.12,WNW,298,1.0,5.0,70,0.02,,---,0.19,VWS V14.01,2013-02-25 18:05:00,
2013-02-25 13:10:00,37.9,28.6,30.12,NW,304,0.0,5.0,69,0.01,,---,0.19,VWS V14.01,2013-02-25 18:10:00,
2013-02-25 13:15:00,37.9,29.0,30.13,WNW,284,0.0,2.0,70,0.01,,---,0.19,VWS V14.01,2013-02-25 18:15:00,
2013-02-25 13:20:00,38.2,30.0,30.13,WNW,284,2.0,2.0,72,0.02,,---,0.20,VWS V14.01,2013-02-25 18:20:00,
2013-02-25 13:25:00,38.4,29.5,30.13,North,8,1.0,5.0,70,0.02,,---,0.20,VWS V14.01,2013-02-25 18:25:00,
2013-02-25 13:30:00,38.3,29.7,30.13,NE,35,2.0,5.0,71,0.02,,---,0.20,VWS V14.01,2013-02-25 18:30:00,
2013-02-25 13:35:00,38.0,29.1,30.14,NNE,30,1.0,5.0,70,0.02,,---,0.20,VWS V14.01,2013-02-25 18:35:00,
2013-02-25 13:40:00,38.0,29.5,30.14,NNE,30,0.0,3.0,71,0.02,,---,0.20,VWS V14.01,2013-02-25 18:40:00,
2013-02-25 13:45:00,38.0,29.8,30.14,NNE,14,1.0,4.0,72,0.02,,---,0.20,VWS V14.01,2013-02-25 18:45:00,
2013-02-25 13:50:00,37.9,29.7,30.14,SE,140,0.0,3.0,72,0.01,,---,0.20,VWS V14.01,2013-02-25 18:50:00,
2013-02-25 13:55:00,37.9,30.4,30.14,North,350,0.0,6.0,74,0.01,,---,0.20,VWS V14.01,2013-02-25 18:55:00,
2013-02-25 14:00:00,37.9,30.4,30.14,NW,305,4.0,5.0,74,0.01,,---,0.20,VWS V14.01,2013-02-25 19:00:00,
2013-02-25 14:05:00,37.7,30.5,30.14,North,4,0.0,5.0,75,0.01,,---,0.20,VWS V14.01,2013-02-25 19:05:00,
2013-02-25 14:10:00,37.6,30.4,30.14,NE,40,0.0,3.0,75,0.01,,---,0.20,VWS V14.01,2013-02-25 19:10:00,
2013-02-25 14:15:00,37.6,30.4,30.14,WNW,285,0.0,5.0,75,0.01,,---,0.20,VWS V14.01,2013-02-25 19:15:00,
2013-02-25 14:20:00,37.6,30.4,30.14,East,83,1.0,2.0,75,0.01,,---,0.20,VWS V14.01,2013-02-25 19:20:00,
2013-02-25 14:25:00,37.8,30.6,30.14,NNE,14,0.0,3.0,75,0.00,,---,0.20,VWS V14.01,2013-02-25 19:25:00,
2013-02-25 14:30:00,38.0,30.5,30.15,NNE,14,0.0,1.0,74,0.00,,---,0.20,VWS V14.01,2013-02-25 19:30:00,
2013-02-25 14:35:00,38.3,30.1,30.15,West,264,0.0,3.0,72,0.00,,---,0.20,VWS V14.01,2013-02-25 19:35:00,
2013-02-25 14:40:00,38.4,30.2,30.15,WSW,244,0.0,1.0,72,0.00,,---,0.20,VWS V14.01,2013-02-25 19:40:00,
2013-02-25 14:45:00,39.1,30.5,30.14,West,279,2.0,3.0,71,0.00,,---,0.20,VWS V14.01,2013-02-25 19:45:00,
2013-02-25 14:50:00,39.7,31.4,30.14,West,279,0.0,2.0,72,0.00,,---,0.20,VWS V14.01,2013-02-25 19:50:00,
2013-02-25 14:55:00,40.2,30.9,30.15,West,279,0.0,2.0,69,0.00,,---,0.20,VWS V14.01,2013-02-25 19:55:00,
2013-02-25 15:00:00,40.7,31.0,30.15,North,353,1.0,3.0,68,0.00,,---,0.20,VWS V14.01,2013-02-25 20:00:00,
2013-02-25 15:05:00,40.3,31.0,30.15,NNE,17,0.0,4.0,69,0.00,,---,0.20,VWS V14.01,2013-02-25 20:05:00,
2013-02-25 15:10:00,39.6,30.6,30.15,NE,40,1.0,5.0,70,0.00,,---,0.20,VWS V14.01,2013-02-25 20:10:00,
2013-02-25 15:15:00,39.2,30.6,30.16,North,355,0.0,2.0,71,0.00,,---,0.20,VWS V14.01,2013-02-25 20:15:00,
2013-02-25 15:20:00,38.9,30.7,30.16,North,8,1.0,3.0,72,0.00,,---,0.20,VWS V14.01,2013-02-25 20:20:00,
2013-02-25 15:25:00,38.7,30.8,30.16,NNE,17,2.0,4.0,73,0.00,,---,0.20,VWS V14.01,2013-02-25 20:25:00,
2013-02-25 15:30:00,38.6,30.7,30.16,NNE,17,0.0,4.0,73,0.00,,---,0.20,VWS V14.01,2013-02-25 20:30:00,
2013-02-25 15:35:00,38.4,30.9,30.16,WNW,295,0.0,3.0,74,0.00,,---,0.20,VWS V14.01,2013-02-25 20:35:00,
2013-02-25 15:40:00,38.3,31.4,30.16,NE,35,0.0,6.0,76,0.00,,---,0.20,VWS V14.01,2013-02-25 20:40:00,
2013-02-25 15:45:00,38.2,31.3,30.16,NE,35,1.0,2.0,76,0.00,,---,0.20,VWS V14.01,2013-02-25 20:45:00,
2013-02-25 15:50:00,38.1,31.5,30.16,NE,35,0.0,1.0,77,0.00,,---,0.20,VWS V14.01,2013-02-25 20:50:00,
2013-02-25 15:55:00,38.0,31.4,30.16,NE,35,0.0,2.0,77,0.00,,---,0.20,VWS V14.01,2013-02-25 20:55:00,
2013-02-25 16:00:00,37.9,31.7,30.16,West,279,0.0,3.0,78,0.00,,---,0.20,VWS V14.01,2013-02-25 21:00:00,
2013-02-25 16:05:00,37.8,31.6,30.16,West,280,0.0,3.0,78,0.00,,---,0.20,VWS V14.01,2013-02-25 21:05:00,
2013-02-25 16:10:00,37.8,31.9,30.16,West,279,0.0,1.0,79,0.00,,---,0.20,VWS V14.01,2013-02-25 21:10:00,
2013-02-25 16:15:00,37.7,31.8,30.16,NNE,30,0.0,3.0,79,0.00,,---,0.20,VWS V14.01,2013-02-25 21:15:00,
2013-02-25 16:20:00,37.6,32.0,30.16,NNW,332,0.0,2.0,80,0.00,,---,0.20,VWS V14.01,2013-02-25 21:20:00,
2013-02-25 16:25:00,37.5,31.6,30.16,North,4,0.0,2.0,79,0.00,,---,0.20,VWS V14.01,2013-02-25 21:25:00,
2013-02-25 16:30:00,37.4,31.5,30.16,North,3,0.0,4.0,79,0.00,,---,0.20,VWS V14.01,2013-02-25 21:30:00,
2013-02-25 16:35:00,37.3,31.7,30.17,NE,40,0.0,2.0,80,0.00,,---,0.20,VWS V14.01,2013-02-25 21:35:00,
2013-02-25 16:40:00,37.2,31.6,30.17,NW,325,1.0,3.0,80,0.00,,---,0.20,VWS V14.01,2013-02-25 21:40:00,
2013-02-25 16:45:00,37.1,31.5,30.17,NNE,15,0.0,3.0,80,0.00,,---,0.20,VWS V14.01,2013-02-25 21:45:00,
2013-02-25 16:50:00,37.1,31.5,30.17,NNE,15,0.0,2.0,80,0.00,,---,0.20,VWS V14.01,2013-02-25 21:50:00,
2013-02-25 16:55:00,37.0,31.7,30.17,NNE,15,0.0,1.0,81,0.00,,---,0.20,VWS V14.01,2013-02-25 21:55:00,
2013-02-25 17:00:00,36.9,31.6,30.17,NNE,15,0.0,1.0,81,0.00,,---,0.20,VWS V14.01,2013-02-25 22:00:00,
2013-02-25 17:05:00,36.9,31.9,30.18,NNE,15,0.0,1.0,82,0.00,,---,0.20,VWS V14.01,2013-02-25 22:05:00,
2013-02-25 17:10:00,36.8,31.8,30.18,NNE,15,2.0,2.0,82,0.00,,---,0.20,VWS V14.01,2013-02-25 22:10:00,
2013-02-25 17:15:00,36.7,31.7,30.18,NNE,15,0.0,2.0,82,0.00,,---,0.20,VWS V14.01,2013-02-25 22:15:00,
2013-02-25 17:20:00,36.7,32.0,30.19,NNE,15,0.0,0.0,83,0.00,,---,0.20,VWS V14.01,2013-02-25 22:20:00,
2013-02-25 17:25:00,36.6,31.9,30.18,NNE,15,0.0,0.0,83,0.00,,---,0.20,VWS V14.01,2013-02-25 22:25:00,
2013-02-25 17:30:00,36.5,31.8,30.18,NNE,15,0.0,1.0,83,0.00,,---,0.20,VWS V14.01,2013-02-25 22:30:00,
2013-02-25 17:35:00,36.4,32.0,30.19,NNE,15,0.0,0.0,84,0.00,,---,0.20,VWS V14.01,2013-02-25 22:35:00,
2013-02-25 17:40:00,36.3,31.9,30.19,NNE,15,0.0,0.0,84,0.00,,---,0.20,VWS V14.01,2013-02-25 22:40:00,
2013-02-25 17:45:00,36.1,32.0,30.19,NNE,15,0.0,0.0,85,0.00,,---,0.20,VWS V14.01,2013-02-25 22:45:00,
2013-02-25 17:50:00,35.9,31.8,30.19,NNE,15,0.0,0.0,85,0.00,,---,0.20,VWS V14.01,2013-02-25 22:50:00,
2013-02-25 17:55:00,35.8,32.0,30.19,NNE,15,0.0,0.0,86,0.00,,---,0.20,VWS V14.01,2013-02-25 22:55:00,
2013-02-25 18:00:00,35.6,31.8,30.19,NNE,15,0.0,0.0,86,0.00,,---,0.20,VWS V14.01,2013-02-25 23:00:00,
2013-02-25 18:05:00,35.4,31.9,30.19,NNE,15,0.0,0.0,87,0.00,,---,0.20,VWS V14.01,2013-02-25 23:05:00,
2013-02-25 18:10:00,35.3,31.8,30.19,NNE,15,0.0,0.0,87,0.00,,---,0.20,VWS V14.01,2013-02-25 23:10:00,
2013-02-25 18:15:00,35.1,31.6,30.19,NNE,15,0.0,0.0,87,0.00,,---,0.20,VWS V14.01,2013-02-25 23:15:00,
2013-02-25 18:20:00,35.0,31.8,30.19,NNE,15,0.0,0.0,88,0.00,,---,0.20,VWS V14.01,2013-02-25 23:20:00,
2013-02-25 18:25:00,34.9,31.7,30.19,NNE,15,0.0,0.0,88,0.00,,---,0.20,VWS V14.01,2013-02-25 23:25:00,
2013-02-25 18:30:00,34.8,31.6,30.19,NNE,15,0.0,0.0,88,0.00,,---,0.20,VWS V14.01,2013-02-25 23:30:00,
2013-02-25 18:35:00,34.7,31.5,30.19,NNE,15,0.0,0.0,88,0.00,,---,0.20,VWS V14.01,2013-02-25 23:35:00,
2013-02-25 18:40:00,34.7,31.8,30.19,NNE,15,0.0,0.0,89,0.00,,---,0.20,VWS V14.01,2013-02-25 23:40:00,
2013-02-25 18:45:00,34.6,31.7,30.19,NNE,15,0.0,0.0,89,0.00,,---,0.20,VWS V14.01,2013-02-25 23:45:00,
2013-02-25 18:50:00,34.6,31.7,30.20,NNE,15,0.0,0.0,89,0.00,,---,0.20,VWS V14.01,2013-02-25 23:50:00,
2013-02-25 18:55:00,34.5,31.6,30.20,NNE,15,0.0,0.0,89,0.00,,---,0.20,VWS V14.01,2013-02-25 23:55:00,
2013-02-25 19:00:00,34.5,31.9,30.20,NNE,15,0.0,0.0,90,0.00,,---,0.20,VWS V14.01,2013-02-26 00:00:00,
2013-02-25 19:05:00,34.6,32.0,30.21,NNE,15,0.0,0.0,90,0.00,,---,0.20,VWS V14.01,2013-02-26 00:05:00,
2013-02-25 19:10:00,34.6,32.0,30.21,NNE,15,0.0,0.0,90,0.00,,---,0.20,VWS V14.01,2013-02-26 00:10:00,
2013-02-25 19:15:00,34.6,32.0,30.21,NNE,15,0.0,0.0,90,0.00,,---,0.20,VWS V14.01,2013-02-26 00:15:00,
2013-02-25 19:20:00,34.3,32.0,30.23,NNE,15,0.0,0.0,91,0.00,,---,0.20,VWS V14.01,2013-02-26 00:20:00,
2013-02-25 19:25:00,34.7,32.1,30.22,NNE,15,0.0,0.0,90,0.00,,---,0.20,VWS V14.01,2013-02-26 00:25:00,
2013-02-25 19:30:00,34.7,32.1,30.22,NNE,15,0.0,0.0,90,0.00,,---,0.20,VWS V14.01,2013-02-26 00:30:00,
2013-02-25 19:35:00,34.7,32.1,30.22,NNE,15,0.0,0.0,90,0.00,,---,0.20,VWS V14.01,2013-02-26 00:35:00,
2013-02-25 19:40:00,34.7,32.1,30.22,NNE,15,0.0,0.0,90,0.00,,---,0.20,VWS V14.01,2013-02-26 00:40:00,
2013-02-25 19:45:00,34.7,32.1,30.22,NNE,15,0.0,0.0,90,0.00,,---,0.20,VWS V14.01,2013-02-26 00:45:00,
2013-02-25 19:50:00,34.7,32.1,30.22,NNE,15,0.0,0.0,90,0.00,,---,0.20,VWS V14.01,2013-02-26 00:50:00,
2013-02-25 19:55:00,34.6,32.0,30.22,NNE,15,0.0,0.0,90,0.00,,---,0.20,VWS V14.01,2013-02-26 00:55:00,
2013-02-25 20:00:00,34.6,32.0,30.22,NNE,15,0.0,0.0,90,0.00,,---,0.20,VWS V14.01,2013-02-26 01:00:00,
2013-02-25 20:05:00,34.5,31.9,30.23,NNE,15,0.0,0.0,90,0.00,,---,0.20,VWS V14.01,2013-02-26 01:05:00,
2013-02-25 20:10:00,34.4,31.8,30.23,NNE,15,0.0,0.0,90,0.00,,---,0.20,VWS V14.01,2013-02-26 01:10:00,
2013-02-25 20:15:00,34.4,32.0,30.23,NNE,15,0.0,0.0,91,0.00,,---,0.20,VWS V14.01,2013-02-26 01:15:00,
2013-02-25 20:20:00,34.3,32.0,30.23,NNE,15,0.0,0.0,91,0.00,,---,0.20,VWS V14.01,2013-02-26 01:20:00,
2013-02-25 20:25:00,34.3,32.0,30.23,NNE,15,0.0,0.0,91,0.00,,---,0.20,VWS V14.01,2013-02-26 01:25:00,
2013-02-25 20:30:00,34.3,32.0,30.23,NNE,15,0.0,0.0,91,0.00,,---,0.20,VWS V14.01,2013-02-26 01:30:00,
2013-02-25 20:35:00,34.3,32.0,30.23,NNE,15,0.0,0.0,91,0.00,,---,0.20,VWS V14.01,2013-02-26 01:35:00,
2013-02-25 20:40:00,34.3,32.0,30.23,NNE,15,0.0,1.0,91,0.00,,---,0.20,VWS V14.01,2013-02-26 01:40:00,
2013-02-25 20:45:00,34.4,32.0,30.23,NNE,15,0.0,1.0,91,0.00,,---,0.20,VWS V14.01,2013-02-26 01:45:00,
2013-02-25 20:50:00,34.4,32.0,30.23,NNE,15,0.0,0.0,91,0.00,,---,0.20,VWS V14.01,2013-02-26 01:50:00,
2013-02-25 20:55:00,34.5,32.2,30.23,NNE,15,0.0,0.0,91,0.00,,---,0.20,VWS V14.01,2013-02-26 01:55:00,
2013-02-25 21:00:00,34.4,32.0,30.23,NNE,15,0.0,0.0,91,0.00,,---,0.20,VWS V14.01,2013-02-26 02:00:00,
2013-02-25 21:05:00,34.4,32.0,30.23,NNE,15,0.0,0.0,91,0.00,,---,0.20,VWS V14.01,2013-02-26 02:05:00,
2013-02-25 21:10:00,34.3,32.0,30.23,NNE,15,0.0,0.0,91,0.00,,---,0.20,VWS V14.01,2013-02-26 02:10:00,
2013-02-25 21:15:00,34.2,31.9,30.23,NNE,15,0.0,0.0,91,0.00,,---,0.20,VWS V14.01,2013-02-26 02:15:00,
2013-02-25 21:20:00,34.2,31.9,30.23,NNE,15,0.0,0.0,91,0.00,,---,0.20,VWS V14.01,2013-02-26 02:20:00,
2013-02-25 21:25:00,34.1,31.8,30.23,NNE,15,0.0,0.0,91,0.00,,---,0.20,VWS V14.01,2013-02-26 02:25:00,
2013-02-25 21:30:00,34.0,31.6,30.23,NNE,15,0.0,0.0,91,0.00,,---,0.20,VWS V14.01,2013-02-26 02:30:00,
2013-02-25 21:35:00,33.9,31.6,30.23,NNE,15,0.0,0.0,91,0.00,,---,0.20,VWS V14.01,2013-02-26 02:35:00,
2013-02-25 21:40:00,33.9,31.6,30.23,NNE,15,0.0,0.0,91,0.00,,---,0.20,VWS V14.01,2013-02-26 02:40:00,
2013-02-25 21:45:00,33.9,31.8,30.23,NNE,15,0.0,0.0,92,0.00,,---,0.20,VWS V14.01,2013-02-26 02:45:00,
2013-02-25 21:50:00,33.9,31.8,30.23,NNE,15,0.0,0.0,92,0.00,,---,0.20,VWS V14.01,2013-02-26 02:50:00,
2013-02-25 21:55:00,33.8,31.7,30.22,NNE,15,0.0,0.0,92,0.00,,---,0.20,VWS V14.01,2013-02-26 02:55:00,
2013-02-25 22:00:00,33.8,31.7,30.22,NNE,15,0.0,0.0,92,0.00,,---,0.20,VWS V14.01,2013-02-26 03:00:00,
2013-02-25 22:05:00,33.7,31.6,30.22,NNE,15,0.0,0.0,92,0.00,,---,0.20,VWS V14.01,2013-02-26 03:05:00,
2013-02-25 22:10:00,33.7,31.6,30.23,NNE,15,0.0,0.0,92,0.00,,---,0.20,VWS V14.01,2013-02-26 03:10:00,
2013-02-25 22:15:00,33.6,31.5,30.22,NNE,15,0.0,0.0,92,0.00,,---,0.20,VWS V14.01,2013-02-26 03:15:00,
2013-02-25 22:20:00,33.5,31.4,30.22,NNE,15,0.0,0.0,92,0.00,,---,0.20,VWS V14.01,2013-02-26 03:20:00,
2013-02-25 22:25:00,33.3,31.2,30.23,NNE,15,0.0,0.0,92,0.00,,---,0.20,VWS V14.01,2013-02-26 03:25:00,
2013-02-25 22:30:00,33.0,30.9,30.23,NNE,15,0.0,0.0,92,0.00,,---,0.20,VWS V14.01,2013-02-26 03:30:00,
2013-02-25 22:35:00,32.9,30.8,30.23,NNE,15,0.0,0.0,92,0.00,,---,0.20,VWS V14.01,2013-02-26 03:35:00,
2013-02-25 22:40:00,32.7,30.6,30.23,NNE,15,0.0,0.0,92,0.00,,---,0.20,VWS V14.01,2013-02-26 03:40:00,
2013-02-25 22:45:00,32.6,30.5,30.23,NNE,15,0.0,0.0,92,0.00,,---,0.20,VWS V14.01,2013-02-26 03:45:00,
2013-02-25 22:50:00,32.4,30.3,30.23,NNE,15,0.0,0.0,92,0.00,,---,0.20,VWS V14.01,2013-02-26 03:50:00,
2013-02-25 22:55:00,32.4,30.6,30.23,NNE,15,0.0,0.0,93,0.00,,---,0.20,VWS V14.01,2013-02-26 03:55:00,
2013-02-25 23:00:00,32.3,30.5,30.23,NNE,15,0.0,0.0,93,0.00,,---,0.20,VWS V14.01,2013-02-26 04:00:00,
2013-02-25 23:05:00,32.4,30.6,30.23,NNE,15,0.0,0.0,93,0.00,,---,0.20,VWS V14.01,2013-02-26 04:05:00,
2013-02-25 23:10:00,32.3,30.5,30.24,NNE,15,0.0,0.0,93,0.00,,---,0.20,VWS V14.01,2013-02-26 04:10:00,
2013-02-25 23:15:00,32.4,30.9,30.24,NNE,15,0.0,0.0,94,0.00,,---,0.20,VWS V14.01,2013-02-26 04:15:00,
2013-02-25 23:20:00,32.4,30.6,30.24,NNE,15,0.0,0.0,93,0.00,,---,0.20,VWS V14.01,2013-02-26 04:20:00,
2013-02-25 23:25:00,32.4,30.6,30.24,NNE,15,0.0,0.0,93,0.00,,---,0.20,VWS V14.01,2013-02-26 04:25:00,
2013-02-25 23:30:00,32.4,30.9,30.24,NNE,15,0.0,0.0,94,0.00,,---,0.20,VWS V14.01,2013-02-26 04:30:00,
2013-02-25 23:35:00,32.3,30.8,30.24,NNE,15,0.0,0.0,94,0.00,,---,0.20,VWS V14.01,2013-02-26 04:35:00,
2013-02-25 23:40:00,32.3,30.5,30.25,NNE,15,0.0,0.0,93,0.00,,---,0.20,VWS V14.01,2013-02-26 04:40:00,
2013-02-25 23:45:00,32.4,30.9,30.25,NNE,15,0.0,0.0,94,0.00,,---,0.20,VWS V14.01,2013-02-26 04:45:00,
2013-02-25 23:50:00,32.4,30.9,30.25,NNE,15,0.0,0.0,94,0.00,,---,0.20,VWS V14.01,2013-02-26 04:50:00,
2013-02-25 23:55:00,32.4,30.9,30.25,NNE,15,0.0,0.0,94,0.00,,---,0.20,VWS V14.01,2013-02-26 04:55:00,